Location: eljas
(40.1958°N, 6.8661°W)
Time: 06:25:06
(UTC+02:00)

Amateur Radio Satellites - All Passes

Search period start: 02 September 2014 05:55
Search period end: 03 September 2014 05:55
Location: eljas, 40.1958°N, 6.8661°W

Satellite Date Start Highest point End Downlink Frequencies (MHz)
Time Altitude Azimuth
ITAMSAT 1 02 Sep 05:55:01 05:59:08 24° 295° (WNW) 06:03:14 435.822 SSB
Oscar 16 02 Sep 05:55:08 05:56:36 11° 302° (WNW) 05:58:05 437.025 USB, Beacon 2401.1428
Uribyol 2 02 Sep 06:04:49 06:08:24 19° 297° (WNW) 06:12:00 436.500 FM
SO-50 02 Sep 06:11:01 06:14:40 24° 314° (NW) 06:18:24 436.795 FM
TMSAT-1 02 Sep 06:15:10 06:20:12 45° 289° (WNW) 06:25:12 436.925 FM
UOSAT-12 02 Sep 06:16:53 06:21:11 40° 115° (ESE) 06:25:34 437.025 FM, 437.400 FM
Uosat F 02 Sep 06:19:22 06:24:01 37° 98° (E) 06:28:39 435.120 FM
AO-27 02 Sep 06:26:04 06:28:28 13° 300° (WNW) 06:30:51 436.795 MHz FM
OPAL 02 Sep 06:54:35 06:59:01 30° 262° (W) 07:03:32 ?
RS-15 02 Sep 07:04:25 07:09:42 15° 97° (E) 07:14:55 29.354 - 29.394 USB, Beacon 29.352 USB
STRAND 1 02 Sep 07:05:05 07:07:58 15° 61° (ENE) 07:10:52 ?
Gurwin Techsat 1B 02 Sep 07:07:09 07:09:23 13° 301° (WNW) 07:11:37 435.225 FM
JAS-2 02 Sep 07:11:28 07:14:16 14° 92° (E) 07:17:11 435.800 - 435.900 CW/SSB, 435.910 FM
Hamsat 02 Sep 07:32:55 07:36:12 21° 93° (E) 07:39:26 145.90 MHz
AO-7 02 Sep 07:42:06 07:50:14 62° 293° (WNW) 07:58:19 29.400 - 29.500 MHz
KITSAT 1 02 Sep 07:43:17 07:48:34 18° 32° (NNE) 07:53:48 435.175 FM
UOSAT-12 02 Sep 07:57:35 08:01:27 26° 313° (NW) 08:05:24 437.025 FM, 437.400 FM
Uosat F 02 Sep 07:58:35 08:02:36 25° 294° (WNW) 08:06:36 435.120 FM
Saudisat 1A 02 Sep 08:20:38 08:24:57 50° 54° (NE) 08:29:13 436.775 MHz
STRAND 1 02 Sep 08:41:32 08:46:35 67° 258° (WSW) 08:51:40 ?
JAS-2 02 Sep 08:54:31 08:59:46 68° 286° (WNW) 09:05:29 435.800 - 435.900 CW/SSB, 435.910 FM
Hamsat 02 Sep 09:08:19 09:12:13 33° 289° (WNW) 09:16:04 145.90 MHz
RS-15 02 Sep 09:08:59 09:20:01 74° 117° (ESE) 09:30:52 29.354 - 29.394 USB, Beacon 29.352 USB
AO-7 02 Sep 09:37:39 09:41:21 14° 314° (NW) 09:45:03 29.400 - 29.500 MHz
KITSAT 1 02 Sep 09:37:43 09:45:45 63° 56° (NE) 09:53:43 435.175 FM
SO-67 02 Sep 09:56:14 09:59:36 51° 285° (WNW) 10:02:57 435.3500 MHz FM
Saudisat 1A 02 Sep 10:01:21 10:04:07 16° 250° (WSW) 10:06:52 436.775 MHz
HO-68 02 Sep 10:35:54 10:41:53 28° 95° (E) 10:47:49 435.675 MHz FM
UKube-1 02 Sep 11:06:18 11:09:31 20° 94° (E) 11:12:43 145.840 MHz, 145.915 MHz
ISS 02 Sep 11:09:01 11:12:15 51° 138° (SE) 11:15:29 145.800 FM
Oscar 11 02 Sep 11:10:22 11:12:52 15° 92° (E) 11:15:20 145.825 FM, Beacon 2401.500 USB
RS-15 02 Sep 11:23:27 11:33:19 36° 321° (NW) 11:43:11 29.354 - 29.394 USB, Beacon 29.352 USB
KITSAT 1 02 Sep 11:33:58 11:40:34 29° 254° (WSW) 11:47:10 435.175 FM
FUNcube-1 02 Sep 11:42:56 11:45:24 14° 91° (E) 11:47:51 145.950 - 145.970 MHz USB
HO-68 02 Sep 12:22:56 12:29:52 55° 292° (WNW) 12:36:47 435.675 MHz FM
AO-40 02 Sep 12:39:04 05:54:36 36° 212° (SSW) 13:01:27 Beacon 2401.320
UKube-1 02 Sep 12:41:51 12:45:48 35° 290° (WNW) 12:49:43 145.840 MHz, 145.915 MHz
Oscar 11 02 Sep 12:45:05 12:49:17 47° 287° (WNW) 12:53:27 145.825 FM, Beacon 2401.500 USB
ISS 02 Sep 12:46:22 12:49:09 24° 336° (NNW) 12:51:56 145.800 FM
PANSAT 02 Sep 12:48:45 12:50:16 12° 170° (S) 12:51:46 not established
SO-50 02 Sep 13:01:39 13:06:04 35° 50° (NE) 13:10:30 436.795 FM
FUNcube-1 02 Sep 13:17:37 13:22:04 54° 286° (WNW) 13:26:33 145.950 - 145.970 MHz USB
RS-15 02 Sep 13:43:10 13:50:16 19° 356° (N) 13:57:26 29.354 - 29.394 USB, Beacon 29.352 USB
Oscar 16 02 Sep 13:52:29 13:55:38 17° 62° (ENE) 13:58:48 437.025 USB, Beacon 2401.1428
MaSat-1 02 Sep 14:10:43 14:15:30 59° 111° (ESE) 14:20:35 437.345 MHz
HO-68 02 Sep 14:15:24 14:16:00 10° 312° (NW) 14:16:37 435.675 MHz FM
ISS 02 Sep 14:25:28 14:26:48 12° 356° (N) 14:28:08 145.800 FM
AO-27 02 Sep 14:25:38 14:28:24 15° 61° (ENE) 14:31:10 436.795 MHz FM
PANSAT 02 Sep 14:27:36 14:29:43 14° 183° (S) 14:31:50 not established
JAS-1B 02 Sep 14:38:12 14:46:24 34° 63° (ENE) 14:53:46 435.800 - 435.900 CW/SSB
SO-50 02 Sep 14:42:24 14:46:32 29° 247° (WSW) 14:50:41 436.795 FM
UOSAT-12 02 Sep 14:46:58 14:51:14 32° 49° (NE) 14:55:26 437.025 FM, 437.400 FM
Oscar 19 02 Sep 14:53:59 14:59:03 58° 73° (ENE) 15:04:09 437.125 CW, 437.150 USB
AO-Echo 02 Sep 15:01:12 15:05:34 32° 69° (ENE) 15:09:51 ?
Gurwin Techsat 1B 02 Sep 15:08:05 15:11:21 17° 62° (ENE) 15:14:37 435.225 FM
Oscar 16 02 Sep 15:29:20 15:34:26 63° 259° (WSW) 15:39:36 437.025 USB, Beacon 2401.1428
ITAMSAT 1 02 Sep 15:32:26 15:37:30 59° 72° (ENE) 15:42:35 435.822 SSB
Uribyol 2 02 Sep 15:41:37 15:46:45 77° 74° (ENE) 15:51:55 436.500 FM
MaSat-1 02 Sep 15:49:12 15:52:56 20° 309° (NW) 15:56:44 437.345 MHz
TMSAT-1 02 Sep 15:56:09 16:00:49 33° 68° (ENE) 16:05:29 436.925 FM
RS-15 02 Sep 15:58:40 16:07:53 29° 31° (NNE) 16:17:16 29.354 - 29.394 USB, Beacon 29.352 USB
AO-27 02 Sep 16:02:08 16:07:17 72° 257° (WSW) 16:12:28 436.795 MHz FM
ISS 02 Sep 16:02:25 16:04:37 16° 17° (NNE) 16:06:48 145.800 FM
JAS-1B 02 Sep 16:26:45 16:36:25 64° 258° (WSW) 16:45:06 435.800 - 435.900 CW/SSB
UOSAT-12 02 Sep 16:27:12 16:31:20 31° 247° (WSW) 16:35:24 437.025 FM, 437.400 FM
Oscar 19 02 Sep 16:35:35 16:38:45 16° 269° (W) 16:41:57 437.125 CW, 437.150 USB
PCSat 02 Sep 16:36:08 16:37:54 12° 102° (ESE) 16:39:40 145.825 MHz
AO-Echo 02 Sep 16:40:03 16:44:19 28° 264° (W) 16:48:30 ?
Gurwin Techsat 1B 02 Sep 16:45:30 16:50:45 65° 258° (WSW) 16:56:03 435.225 FM
AO-7 02 Sep 16:48:25 16:55:55 39° 61° (ENE) 17:03:24 29.400 - 29.500 MHz
ITAMSAT 1 02 Sep 17:14:16 17:17:22 16° 268° (W) 17:20:29 435.822 SSB
Uribyol 2 02 Sep 17:24:55 17:26:47 12° 270° (W) 17:28:39 436.500 FM
Uosat F 02 Sep 17:32:02 17:36:51 50° 71° (ENE) 17:41:41 435.120 FM
TMSAT-1 02 Sep 17:36:04 17:40:41 30° 264° (W) 17:45:20 436.925 FM
ISS 02 Sep 17:38:32 17:41:51 66° 35° (NE) 17:45:10 145.800 FM
Sapphire 02 Sep 17:46:12 17:51:22 49° 113° (ESE) 17:56:35 437.095 MHz 1200 baud AX-25 AFSK
RS-15 02 Sep 18:10:57 18:22:07 83° 58° (ENE) 18:33:43 29.354 - 29.394 USB, Beacon 29.352 USB
PCSat 02 Sep 18:15:05 18:20:30 87° 298° (WNW) 18:25:57 145.825 MHz
JAS-1B 02 Sep 18:24:52 18:28:03 12° 274° (W) 18:31:10 435.800 - 435.900 CW/SSB
Hamsat 02 Sep 18:26:40 18:29:09 15° 65° (ENE) 18:31:38 145.90 MHz
AO-7 02 Sep 18:40:31 18:48:29 48° 259° (W) 18:56:29 29.400 - 29.500 MHz
OPAL 02 Sep 19:04:08 19:09:23 73° 105° (ESE) 19:14:33 ?
JAS-2 02 Sep 19:06:15 19:11:57 46° 71° (ENE) 19:17:08 435.800 - 435.900 CW/SSB, 435.910 FM
Uosat F 02 Sep 19:12:31 19:15:54 18° 267° (W) 19:19:18 435.120 FM
ISS 02 Sep 19:16:31 19:18:12 13° 231° (SW) 19:19:53 145.800 FM
Sapphire 02 Sep 19:30:36 19:35:03 25° 311° (NW) 19:39:31 437.095 MHz 1200 baud AX-25 AFSK
Hamsat 02 Sep 20:00:29 20:04:40 49° 261° (W) 20:08:55 145.90 MHz
PCSat 02 Sep 20:01:34 20:04:43 15° 318° (NW) 20:07:53 145.825 MHz
Oscar 10/S400 02 Sep 20:17:50 20:35:55 50° 155° (SSE) 21:24:53 145.825 - 145.975 CW/USB, Beacon 145.810 USB
RS-15 02 Sep 20:24:50 20:33:13 26° 258° (WSW) 20:41:54 29.354 - 29.394 USB, Beacon 29.352 USB
SO-67 02 Sep 20:28:30 20:31:47 42° 74° (ENE) 20:35:05 435.3500 MHz FM
OPAL 02 Sep 20:44:41 20:47:37 15° 301° (WNW) 20:50:33 ?
JAS-2 02 Sep 20:52:31 20:57:12 23° 265° (W) 21:01:33 435.800 - 435.900 CW/SSB, 435.910 FM
STRAND 1 02 Sep 20:52:47 20:57:39 43° 99° (E) 21:02:29 ?
HO-68 02 Sep 21:05:14 21:10:17 21° 57° (ENE) 21:15:19 435.675 MHz FM
UKube-1 02 Sep 22:01:55 22:04:47 18° 65° (ENE) 22:07:40 145.840 MHz, 145.915 MHz
Oscar 11 02 Sep 22:06:13 22:07:51 12° 63° (ENE) 22:09:29 145.825 FM, Beacon 2401.500 USB
Saudisat 1A 02 Sep 22:28:32 22:30:57 15° 109° (ESE) 22:33:22 436.775 MHz
MaSat-1 02 Sep 22:30:37 22:32:42 13° 45° (NE) 22:34:41 437.345 MHz
STRAND 1 02 Sep 22:32:38 22:36:33 23° 295° (WNW) 22:40:27 ?
FUNcube-1 02 Sep 22:41:12 22:41:52 10° 62° (ENE) 22:42:32 145.950 - 145.970 MHz USB
HO-68 02 Sep 22:50:05 22:57:13 77° 255° (WSW) 23:04:23 435.675 MHz FM
UKube-1 02 Sep 23:36:33 23:40:40 42° 261° (W) 23:44:48 145.840 MHz, 145.915 MHz
Oscar 11 02 Sep 23:39:10 23:43:28 65° 259° (W) 23:47:49 145.825 FM, Beacon 2401.500 USB
KITSAT 1 03 Sep 00:05:17 00:12:52 46° 111° (ESE) 00:20:28 435.175 FM
Saudisat 1A 03 Sep 00:05:43 00:10:03 56° 305° (NW) 00:14:25 436.775 MHz
MaSat-1 03 Sep 00:05:58 00:10:25 74° 247° (WSW) 00:14:13 437.345 MHz
FUNcube-1 03 Sep 00:13:26 00:17:37 72° 258° (WSW) 00:21:54 145.950 - 145.970 MHz USB
HO-68 03 Sep 00:43:37 00:45:58 12° 272° (W) 00:48:19 435.675 MHz FM
PCSat 03 Sep 01:22:24 01:24:34 12° 39° (NE) 01:26:44 145.825 MHz
KITSAT 1 03 Sep 02:00:43 02:08:18 43° 310° (NW) 02:15:57 435.175 FM
Sapphire 03 Sep 02:34:44 02:39:44 36° 53° (NE) 02:44:43 437.095 MHz 1200 baud AX-25 AFSK
PCSat 03 Sep 03:03:39 03:09:04 66° 59° (ENE) 03:14:26 145.825 MHz
Oscar 19 03 Sep 03:06:59 03:10:56 22° 93° (E) 03:14:51 437.125 CW, 437.150 USB
SO-50 03 Sep 03:19:39 03:20:46 11° 107° (ESE) 03:21:54 436.795 FM
Oscar 16 03 Sep 03:41:39 03:46:42 48° 99° (E) 03:51:41 437.025 USB, Beacon 2401.1428
ITAMSAT 1 03 Sep 03:46:38 03:50:37 22° 94° (E) 03:54:34 435.822 SSB
Uribyol 2 03 Sep 03:55:23 03:59:51 28° 96° (E) 04:04:18 436.500 FM
KITSAT 1 03 Sep 04:02:25 04:06:15 14° 336° (NNW) 04:10:05 435.175 FM
TMSAT-1 03 Sep 04:14:05 04:16:28 13° 90° (E) 04:18:51 436.925 FM
JAS-1B 03 Sep 04:15:24 04:21:23 39° 96° (E) 04:26:44 435.800 - 435.900 CW/SSB
AO-27 03 Sep 04:15:52 04:20:47 42° 99° (E) 04:25:42 436.795 MHz FM
Sapphire 03 Sep 04:18:18 04:23:04 32° 251° (WSW) 04:27:48 437.095 MHz 1200 baud AX-25 AFSK
OPAL 03 Sep 04:42:23 04:45:23 16° 59° (ENE) 04:48:25 ?
Oscar 19 03 Sep 04:45:32 04:50:28 44° 290° (WNW) 04:55:21 437.125 CW, 437.150 USB
AO-Echo 03 Sep 04:46:50 04:51:33 84° 284° (WNW) 04:56:17 ?
PCSat 03 Sep 04:48:36 04:51:53 16° 256° (WSW) 04:55:08 145.825 MHz
SO-50 03 Sep 04:56:11 05:00:38 75° 303° (WNW) 05:05:14 436.795 FM
Gurwin Techsat 1B 03 Sep 05:02:18 05:07:30 53° 100° (E) 05:12:40 435.225 FM
Oscar 16 03 Sep 05:21:51 05:25:41 21° 296° (WNW) 05:29:30 437.025 USB, Beacon 2401.1428
ITAMSAT 1 03 Sep 05:25:22 05:30:16 44° 290° (WNW) 05:35:10 435.822 SSB
Uribyol 2 03 Sep 05:34:40 05:39:19 34° 292° (WNW) 05:43:58 436.500 FM
Uosat F 03 Sep 05:41:37 05:44:37 16° 92° (E) 05:47:35 435.120 FM
